This demonstration page uses our WeatherBlox Daily Observations layout. Learn more.

Hourly Observations for January 17, 2016

Temp ( °F °C ) Dew Point ( °F °C ) Humidity (%) Winds ( mph kmh ) Pressure ( in mb ) Visibility ( mi km ) Precip ( " mm )
12:15 am 00:15 Cloudy 16 -9.1 10 -12.4 77 77 NNE 16 26 30.3 1026 10 16.0934 0 0
12:35 am 00:35 Cloudy 15 -9.5 9 -12.7 78 78 NNE 16 26 30.3 1026 10 16.0934 0 0
12:55 am 00:55 Cloudy 15 -9.6 9 -12.8 78 78 N 15 24 30.3 1026 10 16.0934 0 0
1:15 am 01:15 Cloudy 14 -10.1 9 -13 80 80 NNE 16 26 30.3 1026 10 16.0934 0 0
1:35 am 01:35 Cloudy 13 -10.3 8 -13.5 78 78 NNE 15 24 30.3 1026 10 16.0934 0 0
1:55 am 01:55 Cloudy 13 -10.5 8 -13.4 79 79 NNE 15 24 30.3 1026 10 16.0934 0 0
2:15 am 02:15 Cloudy 12 -10.9 7 -13.8 79 79 NNE 17 28 30.3 1026 10 16.0934 0 0
2:35 am 02:35 Cloudy with Light Snow 12 -11.1 7 -14 79 79 N 18 30 30.33 1027 10 16.0934 0 0
2:55 am 02:55 Cloudy 11 -11.7 5 -15 77 77 N 16 26 30.36 1028 10 16.0934 0 0
3:15 am 03:15 Cloudy 10 -12.1 4 -15.5 76 76 N 13 20 30.36 1028 10 16.0934 0 0
3:35 am 03:35 Mostly Cloudy 9 -12.6 3 -16.1 75 75 N 16 26 30.36 1028 10 16.0934 0 0
3:55 am 03:55 Partly Cloudy 9 -12.9 2 -16.4 75 75 N 14 22 30.36 1028 10 16.0934 0 0
4:15 am 04:15 Cloudy 9 -12.8 3 -16.1 77 77 N 12 19 30.36 1028 10 16.0934 0 0
4:35 am 04:35 Mostly Cloudy 8 -13.4 2 -16.7 76 76 N 12 19 30.36 1028 10 16.0934 0 0
4:55 am 04:55 Mostly Cloudy 8 -13.6 1 -17.1 75 75 N 13 20 30.39 1029 10 16.0934 0 0
5:15 am 05:15 Partly Cloudy 7 -14 0 -18 72 72 NNE 13 20 30.39 1029 10 16.0934 0 0
5:35 am 05:35 Partly Cloudy 7 -14.1 1 -17.5 76 76 NNE 15 24 30.39 1029 10 16.0934 0 0
5:55 am 05:55 Clear 6 -14.5 0 -18 75 75 NNE 14 22 30.39 1029 10 16.0934 0 0
6:15 am 06:15 Mostly Cloudy 6 -14.7 -1 -18.4 74 74 NNE 14 22 30.42 1030 10 16.0934 0 0
6:35 am 06:35 Cloudy 5 -15 -2 -19.1 71 71 NNE 12 19 30.45 1031 10 16.0934 0 0
6:55 am 06:55 Cloudy 5 -15.2 -3 -19.5 70 70 NNE 10 17 30.45 1031 10 16.0934 0 0
7:15 am 07:15 Cloudy 5 -15.2 -3 -19.6 69 69 NNE 10 17 30.45 1031 10 16.0934 0 0
7:35 am 07:35 Cloudy 5 -15.1 -3 -19.6 69 69 NNE 8 13 30.48 1032 10 16.0934 0 0
7:55 am 07:55 Cloudy 5 -15.1 -3 -19.6 69 69 N 7 11 30.48 1032 10 16.0934 0 0
8:15 am 08:15 Cloudy 5 -15.1 -3 -19.6 69 69 NNE 8 13 30.48 1032 10 16.0934 0 0
8:35 am 08:35 Cloudy 5 -15 -3 -19.6 68 68 N 7 11 30.48 1032 10 16.0934 0 0
8:55 am 08:55 Cloudy 5 -14.8 -3 -19.3 69 69 N 6 9 30.48 1032 10 16.0934 0 0
9:15 am 09:15 Cloudy 6 -14.7 -3 -19.6 67 67 N 6 9 30.48 1032 10 16.0934 0 0
9:35 am 09:35 Cloudy 6 -14.4 -3 -19.2 67 67 N 8 13 30.5 1033 10 16.0934 0 0
9:55 am 09:55 Mostly Cloudy 6 -14.3 -3 -19.2 67 67 N 7 11 30.5 1033 10 16.0934 0 0
10:15 am 10:15 Partly Cloudy 8 -13.5 -2 -18.9 64 64 NNW 5 7 30.5 1033 10 16.0934 0 0
10:35 am 10:35 Sunny 9 -12.8 -1 -18.5 63 63 N 9 15 30.5 1033 10 16.0934 0 0
10:55 am 10:55 Mostly Cloudy 9 -12.6 -1 -18.3 63 63 N 8 13 30.5 1033 10 16.0934 0 0
11:15 am 11:15 Mostly Cloudy 9 -12.6 -1 -18.3 63 63 NNW 8 13 30.5 1033 10 16.0934 0 0
11:35 am 11:35 Mostly Cloudy 10 -12 -1 -18.1 61 61 NNW 9 15 30.48 1032 10 16.0934 0 0
11:55 am 11:55 Partly Cloudy 11 -11.6 -1 -18.2 58 58 NNW 9 15 30.48 1032 10 16.0934 0 0
12:15 pm 12:15 Partly Cloudy 12 -10.9 0 -17.8 57 57 N 8 13 30.45 1031 10 16.0934 0 0
12:35 pm 12:35 Partly Cloudy 13 -10.4 0 -17.6 56 56 N 8 13 30.42 1030 10 16.0934 0 0
12:55 pm 12:55 Sunny 15 -9.7 2 -16.9 56 56 NNW 6 9 30.42 1030 10 16.0934 0 0
1:15 pm 13:15 Sunny 15 -9.7 2 -16.7 57 57 N 7 11 30.42 1030 10 16.0934 0 0
1:35 pm 13:35 Mostly Cloudy 16 -8.8 2 -16.8 53 53 NNW 6 9 30.39 1029 10 16.0934 0 0
1:55 pm 13:55 Partly Cloudy 17 -8.5 2 -16.6 52 52 N 8 13 30.39 1029 10 16.0934 0 0
2:15 pm 14:15 Mostly Cloudy 17 -8.6 2 -16.4 54 54 NNW 6 9 30.39 1029 10 16.0934 0 0
2:35 pm 14:35 Cloudy 17 -8.2 3 -16 54 54 NW 6 9 30.39 1029 10 16.0934 0 0
2:55 pm 14:55 Cloudy 17 -8.1 3 -16.1 53 53 NNW 7 11 30.39 1029 10 16.0934 0 0
3:15 pm 15:15 Cloudy 18 -8 4 -15.8 54 54 N 7 11 30.39 1029 10 16.0934 0 0
3:35 pm 15:35 Cloudy 18 -8 3 -16.2 52 52 NNW 3 6 30.39 1029 10 16.0934 0 0
3:55 pm 15:55 Partly Cloudy 17 -8.2 3 -16 54 54 NNW 6 9 30.39 1029 10 16.0934 0 0
4:15 pm 16:15 Partly Cloudy 17 -8.3 3 -16 54 54 Calm 30.39 1029 10 16.0934 0 0
4:35 pm 16:35 Partly Cloudy 17 -8.5 3 -16 55 55 Calm 30.39 1029 10 16.0934 0 0
4:55 pm 16:55 Partly Cloudy 17 -8.5 4 -15.5 57 57 Calm 30.42 1030 10 16.0934 0 0
5:15 pm 17:15 Mostly Cloudy 17 -8.2 4 -15.5 56 56 Calm 30.42 1030 10 16.0934 0 0
5:35 pm 17:35 Cloudy 17 -8.1 6 -14.7 59 59 W 5 7 30.42 1030 10 16.0934 0 0
5:55 pm 17:55 Cloudy 17 -8.3 7 -14.1 63 63 W 3 6 30.42 1030 10 16.0934 0 0
6:15 pm 18:15 Cloudy 16 -8.8 7 -14.1 66 66 WSW 3 6 30.42 1030 10 16.0934 0 0
6:35 pm 18:35 Cloudy 16 -8.8 6 -14.2 65 65 Calm 30.42 1030 10 16.0934 0 0
6:55 pm 18:55 Cloudy 17 -8.5 6 -14.2 64 64 Calm 30.42 1030 10 16.0934 0 0
7:15 pm 19:15 Cloudy 17 -8.6 8 -13.4 69 69 Calm 30.42 1030 10 16.0934 0 0
7:35 pm 19:35 Cloudy 17 -8.5 8 -13.4 68 68 Calm 30.42 1030 10 16.0934 0 0
7:55 pm 19:55 Cloudy 17 -8.1 7 -13.7 64 64 SW 5 7 30.45 1031 10 16.0934 0 0
8:15 pm 20:15 Cloudy 17 -8.1 8 -13.2 67 67 SW 3 6 30.45 1031 10 16.0934 0 0
8:35 pm 20:35 Cloudy 18 -8 9 -13 68 68 Calm 30.45 1031 10 16.0934 0 0
8:55 pm 20:55 Cloudy 18 -8 9 -13 68 68 Calm 30.45 1031 10 16.0934 0 0
9:15 pm 21:15 Cloudy 18 -7.8 9 -12.8 68 68 Calm 30.45 1031 10 16.0934 0 0
9:35 pm 21:35 Cloudy 17 -8.6 8 -13.3 69 69 E 6 9 30.45 1031 10 16.0934 0 0
9:55 pm 21:55 Mostly Cloudy 16 -9 8 -13.1 72 72 ESE 3 6 30.42 1030 10 16.0934 0 0
10:15 pm 22:15 Cloudy 16 -9 9 -12.7 75 75 ESE 5 7 30.42 1030 10 16.0934 0 0
10:35 pm 22:35 Cloudy 16 -9 8 -13.4 71 71 SE 6 9 30.42 1030 10 16.0934 0 0
10:55 pm 22:55 Cloudy 15 -9.5 8 -13.5 73 73 SE 5 7 30.45 1031 10 16.0934 0 0
11:15 pm 23:15 Cloudy 14 -10.1 8 -13.5 76 76 SE 5 7 30.45 1031 10 16.0934 0 0
11:35 pm 23:35 Cloudy 14 -10.1 8 -13.2 78 78 Calm 30.45 1031 10 16.0934 0 0
11:55 pm 23:55 Cloudy 14 -9.8 8 -13.1 77 77 Calm 30.45 1031 10 16.0934 0 0

Powered by AerisWeather